Laurinburg-Maxton, NC

6:39 PM EDT on April 24, 2017 (GMT -0400)
Laurinburg-Maxton

Weather History for KMEB - October, 2013

Change the Weather History Date:

Saturday, October 5, 2013

  Actual Average (KHFF) Record (KHFF)
Temperature  
Mean Temperature 74 °F -  
Max Temperature 89 °F 73 °F 88 °F (2013)
Min Temperature 60 °F 54 °F 38 °F (2014)
Cooling Degree Days 10    
Growing Degree Days 24 (Base 50)    
Moisture  
Dew Point 62 °F    
Average Humidity 87    
Maximum Humidity 100    
Minimum Humidity 36    
Precipitation  
Precipitation 0.00 in - - ()
Sea Level Pressure  
Sea Level Pressure 30.10 in    
Wind  
Wind Speed 1 mph (SSE)    
Max Wind Speed 8 mph    
Max Gust Speed -    
Visibility 5 miles    
Events Fog    
Averages and records for this station are not official NWS values.
T = Trace of Precipitation, MM = Missing Value Source: NWS Daily Summary

Daily Weather History Graph

Daily Weather History Graph

Search for Another Location

Airport or City:

Trip Planner

Search our weather history database for the weather conditions in past years. The results will help you decide how hot, cold, wet, or windy it might be!

Date:

Astronomy

Oct. 05, 2013 Rise Set
Actual Time 7:15 AM EDT 6:55 PM EDT
Civil Twilight 6:50 AM EDT 7:20 PM EDT
Nautical Twilight 6:20 AM EDT 7:50 PM EDT
Astronomical Twilight 5:51 AM EDT 8:19 PM EDT
Moon 7:50 AM EDT (10/5) 7:17 PM EDT (10/5)
Length of Visible Light 12h 30m
Length of Day
11h 40m
New Moon, 0% of the Moon is Illuminated
Oct 5
New Moon
Oct 11
First Quarter
Oct 18
Full
Oct 26
Last Quarter
Nov 3
New

Hourly Weather History & Observations

Time (EDT) Temp. Heat Index Dew Point Humidity Pressure Visibility Wind Dir Wind Speed Gust Speed Precip Events Conditions
12:52 AM 66.0 °F - 64.9 °F 96% 30.11 in 10.0 mi Calm Calm - N/A   Clear
1:52 AM 64.9 °F - 64.9 °F 100% 30.11 in 3.0 mi Calm Calm - N/A   Clear
2:06 AM 64.4 °F - 64.4 °F 100% 30.11 in 1.2 mi Calm Calm - N/A   Clear
2:09 AM 64.4 °F - 64.4 °F 100% 30.11 in 0.5 mi Calm Calm - N/A Fog Fog
2:26 AM 62.6 °F - 62.6 °F 100% 30.11 in 1.0 mi Calm Calm - N/A   Clear
2:29 AM 62.6 °F - 62.6 °F 100% 30.11 in 3.0 mi Calm Calm - N/A   Clear
2:45 AM 62.6 °F - 62.6 °F 100% 30.10 in 1.5 mi Calm Calm - N/A   Clear
2:49 AM 62.6 °F - 62.6 °F 100% 30.10 in 0.5 mi Calm Calm - N/A Fog Fog
2:52 AM 62.1 °F - 62.1 °F 100% 30.10 in 0.2 mi Calm Calm - N/A Fog Fog
3:02 AM 62.6 °F - 62.6 °F 100% 30.10 in 1.0 mi Calm Calm - N/A   Clear
3:09 AM 62.6 °F - 62.6 °F 100% 30.10 in 2.5 mi Calm Calm - N/A   Partly Cloudy
3:15 AM 62.6 °F - 62.6 °F 100% 30.10 in 6.0 mi Calm Calm - N/A   Mostly Cloudy
3:25 AM 62.6 °F - 62.6 °F 100% 30.10 in 1.2 mi Calm Calm - N/A   Mostly Cloudy
3:28 AM 62.6 °F - 62.6 °F 100% 30.10 in 0.5 mi Calm Calm - N/A Fog Fog
3:37 AM 60.8 °F - 60.8 °F 100% 30.10 in 0.8 mi Calm Calm - N/A   Mist
3:39 AM 60.8 °F - 60.8 °F 100% 30.10 in 2.0 mi Calm Calm - N/A   Mostly Cloudy
3:52 AM 61.0 °F - 60.1 °F 97% 30.09 in 10.0 mi Calm Calm - N/A   Mostly Cloudy
3:57 AM 60.8 °F - 60.8 °F 100% 30.09 in 1.5 mi Calm Calm - N/A   Mostly Cloudy
4:01 AM 60.8 °F - 60.8 °F 100% 30.09 in 0.5 mi Calm Calm - N/A Fog Fog
4:10 AM 60.8 °F - 60.8 °F 100% 30.09 in 0.8 mi Calm Calm - N/A   Mist
4:14 AM 60.8 °F - 60.8 °F 100% 30.09 in 2.0 mi Calm Calm - N/A   Overcast
4:21 AM 60.8 °F - 60.8 °F 100% 30.09 in 10.0 mi Calm Calm - N/A   Overcast
4:52 AM 60.1 °F - 60.1 °F 100% 30.09 in 1.5 mi Calm Calm - N/A   Overcast
4:55 AM 60.8 °F - 60.8 °F 100% 30.10 in 0.5 mi Calm Calm - N/A Fog Fog
5:52 AM 60.1 °F - 60.1 °F 100% 30.11 in 0.2 mi Calm Calm - N/A Fog Fog
6:03 AM 60.8 °F - 60.8 °F 100% 30.11 in 0.2 mi Calm Calm - N/A Fog Fog
6:25 AM 60.8 °F - 60.8 °F 100% 30.12 in 0.2 mi Calm Calm - N/A Fog Fog
6:52 AM 60.1 °F - 60.1 °F 100% 30.11 in 0.2 mi Calm Calm - N/A Fog Fog
7:52 AM 60.1 °F - 60.1 °F 100% 30.13 in 0.2 mi Calm Calm - N/A Fog Fog
8:29 AM 62.6 °F - 62.6 °F 100% 30.13 in 1.0 mi Calm Calm - N/A   Overcast
8:50 AM 64.4 °F - 64.4 °F 100% 30.14 in 3.0 mi Calm Calm - N/A   Mostly Cloudy
8:52 AM 64.0 °F - 64.0 °F 100% 30.13 in 4.0 mi Calm Calm - N/A   Mostly Cloudy
9:02 AM 64.4 °F - 64.4 °F 100% 30.14 in 9.0 mi Calm Calm - N/A   Scattered Clouds
9:52 AM 73.0 °F - 66.0 °F 79% 30.14 in 10.0 mi Calm Calm - N/A   Clear
10:52 AM 80.1 °F 81.7 °F 64.0 °F 58% 30.13 in 10.0 mi Calm Calm - N/A   Clear
11:52 AM 84.9 °F 85.0 °F 61.0 °F 44% 30.12 in 10.0 mi Calm Calm - N/A   Clear
12:52 PM 84.9 °F 84.8 °F 60.1 °F 43% 30.11 in 10.0 mi WSW 3.5 mph - N/A   Partly Cloudy
1:52 PM 86.0 °F 85.7 °F 60.1 °F 41% 30.08 in 10.0 mi Variable 4.6 mph - N/A   Clear
2:52 PM 88.0 °F 87.1 °F 59.0 °F 37% 30.06 in 10.0 mi SE 8.1 mph - N/A   Partly Cloudy
3:52 PM 89.1 °F 88.2 °F 59.0 °F 36% 30.06 in 10.0 mi South 8.1 mph - N/A   Scattered Clouds
4:52 PM 86.0 °F 85.4 °F 59.0 °F 40% 30.04 in 10.0 mi SSE 4.6 mph - N/A   Partly Cloudy
5:52 PM 86.0 °F 85.4 °F 59.0 °F 40% 30.04 in 10.0 mi SSE 6.9 mph - N/A   Clear
6:52 PM 78.1 °F - 61.0 °F 56% 30.04 in 10.0 mi South 4.6 mph - N/A   Clear
7:52 PM 73.0 °F - 62.1 °F 68% 30.05 in 10.0 mi SSE 3.5 mph - N/A   Clear
8:52 PM 71.1 °F - 63.0 °F 75% 30.07 in 10.0 mi South 6.9 mph - N/A   Clear
9:52 PM 70.0 °F - 62.1 °F 76% 30.08 in 10.0 mi South 3.5 mph - N/A   Clear
10:52 PM 66.9 °F - 62.1 °F 84% 30.09 in 10.0 mi Calm Calm - N/A   Clear
11:52 PM 66.0 °F - 63.0 °F 90% 30.08 in 10.0 mi Calm Calm - N/A   Clear